Location: Home
(42.5358°N, 72.7383°W)
Time: 12:53:48
(UTC-04:00)

Tiangong - Visible Passes

Search period start: 17 August 2022 00:00
Search period end: 27 August 2022 00:00
Orbit: 380 x 385 km, 41.5° (Epoch: 17 August)

Date Brightness Start Highest point End Pass type
(mag) Time Alt. Az. Time Alt. Az. Time Alt. Az.
17 Aug -2.2 21:26:20 10° WSW 21:29:26 58° S 21:29:37 57° SSE visible
18 Aug -1.7 20:26:19 10° WSW 20:29:20 43° SSE 20:32:20 10° E visible
18 Aug -0.5 22:02:52 10° W 22:04:34 29° W 22:04:34 29° W visible
19 Aug -2.2 21:02:42 10° WSW 21:05:51 70° S 21:07:13 30° E visible
20 Aug -1.8 21:39:16 10° W 21:41:57 57° WSW 21:41:57 57° WSW visible
21 Aug -2.2 20:39:05 10° W 20:42:14 74° S 20:44:28 18° E visible
21 Aug 0.6 22:15:54 10° W 22:16:38 16° W 22:16:38 16° W visible
22 Aug -2.1 21:15:40 10° W 21:18:46 57° SSW 21:19:07 52° SSE visible
23 Aug -2.1 20:15:27 10° W 20:18:35 70° S 20:21:36 11° ESE visible
23 Aug 0.1 21:52:22 10° W 21:53:46 20° WSW 21:53:46 20° WSW visible
24 Aug -1.5 20:52:03 10° W 20:55:04 42° SSW 20:56:14 28° SE visible
25 Aug -0.1 21:29:00 10° WSW 21:30:54 19° SW 21:30:54 19° SW visible
26 Aug -0.8 20:28:29 10° W 20:31:17 29° SSW 20:33:26 14° SE visible
